561  
ASUS43 KEAX 061315  
RWREAX  
 
WEATHER ROUNDUP FOR EASTERN KANSAS AND NORTHWEST MISSOURI  
NATIONAL WEATHER SERVICE KANSAS CITY/PLEASANT HILL MO  
800 AM CDT WED JUL 06 2022  
 
KSZ040-057-103>105-MOZ028-029-037-043-061400-   
..KANSAS CITY METROPOLITAN AREA
 
 
 
CITY SKY/WX TMP DP RH WIND PRES REMARKS
 
K.C. INTL PTSUNNY 80 71 74 NW10G17 29.95R  
K.C. DOWNTOWN PTSUNNY 82 73 74 S6 29.92R  
LEES SUMMIT PTSUNNY 82 71 69 SW5 29.94R  
OLATHE - IXD MOSUNNY 78 70 76 CALM 29.95R  
OLATHE - OJC MOSUNNY 82 68 62 CALM 29.95R  
LAWRENCE PTSUNNY 79 73 82 NW3 29.94R  
 

 
 
MOZ001>008-011>017-020>025-030>033-038>040-044>046-053-054-061400-   
..NORTHERN AND CENTRAL MISSOURI
 
 
 
CITY SKY/WX TMP DP RH WIND PRES REMARKS
 
ST. JOSEPH PTSUNNY 74 73 97 N13 29.95R  
MOSBY PTSUNNY 77 72 83 CALM 29.93R  
HARRISONVILLE PTSUNNY 82 72 69 CALM 29.98R  
WHITEMAN AFB PTSUNNY 80 72 75 S7 29.90S  
CLINTON MOSUNNY 79 72 78 CALM 29.94S  
SEDALIA NOT AVBL  
MARSHALL PTSUNNY 77 72 83 S5 29.94R  
CHILLICOTHE N/A 76 74 93 CALM 29.94R  
MOBERLY PTSUNNY 77 70 78 S7 29.94S  
KIRKSVILLE CLOUDY 74 72 93 CALM 29.94R  
 

 
 
MOZ041-047>049-056>058-063>065-088>090-097-061400-   
..EASTERN AND SOUTHERN MISSOURI
 
 
 
CITY SKY/WX TMP DP RH WIND PRES REMARKS
 
ST. LOUIS INTL PTSUNNY 83 70 64 S6 29.94R  
SPIRIT OF STL PTSUNNY 79 72 79 SW6 29.93R  
COLUMBIA CLOUDY 77 72 84 S5 29.96R  
JEFFERSON CITY MOSUNNY 81 71 71 SE3 29.94R  
MEXICO PTSUNNY 73 72 94 SW7 29.94R  
ROLLA PTSUNNY 82 70 66 S5 29.99R  
LEBANON PTSUNNY 81 64 57 SW8 30.01R  
SPRINGFIELD SUNNY 81 69 67 S8 29.98R  
BRANSON SUNNY 82 68 61 S5 30.01R  
JOPLIN MOSUNNY 84 67 56 S15 29.96R  
WEST PLAINS MOSUNNY 79 70 74 SW3 30.02R  
SIKESTON MOSUNNY 84 77 79 SW10 29.96S HX 94  
 

 
 
IAZ060-094-KSZ022-034>040-054-083-096-NEZ052-066-093-061400-    
..KANSAS...SOUTHEAST NEBRASKA AND IOWA
 
 
 
CITY SKY/WX TMP DP RH WIND PRES REMARKS
 
TOPEKA PTSUNNY 81 72 74 NE6 29.93R  
MANHATTAN PTSUNNY 76 69 79 N5 29.93R  
EMPORIA MOSUNNY 79 69 71 E6 29.94R  
OTTAWA FAIR 81 72 74 CALM 29.93S  
CHANUTE MOSUNNY 83 67 58 S10 29.93R  
SALINA PTSUNNY 73 68 84 E12 29.92F  
WICHITA MOSUNNY 81 65 58 SE8 29.90R  
OMAHA CLOUDY 72 69 90 NE6 29.90F  
LINCOLN LGT RAIN 72 70 93 N7 29.95F FOG  
FALLS CITY CLOUDY 75 72 90 N7 29.94F  
LAMONI CLOUDY 71 69 93 N5 29.95F  
DES MOINES TSTM 70 70 100 CALM 29.95R VSB 1  
 

 
 
 
 
CLICK HERE TO GO TO PREVIOUS BULLETINS.

The Nexlab MO Page
The Nexlab KS Page Main Text Page